| time (UTC) | temp C | wind direction | speed KPH | gust KPH | rain 1hr cm | rain 24hr cm | rain mn cm | humidity % | barometer mb |
| 20260508135606 | 12 | 263 | 0.0 | 0.0 | 0.00 | 0.00 | 0.00 | 87 | 1029.7 |
| 20260508135114 | 12 | 263 | 0.0 | 3.2 | 0.00 | 0.00 | 0.00 | 87 | 1029.7 |
| 20260508134554 | 12 | 263 | 0.0 | 3.2 | 0.00 | 0.00 | 0.00 | 87 | 1029.7 |
| 20260508134100 | 12 | 263 | 0.0 | 3.2 | 0.00 | 0.00 | 0.00 | 86 | 1030.0 |
| 20260508133549 | 12 | 263 | 0.0 | 0.0 | 0.00 | 0.00 | 0.00 | 86 | 1030.0 |
| 20260508133036 | 12 | 263 | 0.0 | 0.0 | 0.00 | 0.00 | 0.00 | 86 | 1030.0 |
| 20260508132528 | 12 | 263 | 0.0 | 0.0 | 0.00 | 0.00 | 0.00 | 86 | 1030.1 |
| 20260508132035 | 12 | 263 | 0.0 | 0.0 | 0.00 | 0.00 | 0.00 | 86 | 1030.1 |
| 20260508130908 | 12 | 263 | 0.0 | 4.8 | 0.00 | 0.00 | 0.00 | 86 | 1030.1 |
| 20260508130403 | 12 | 263 | 0.0 | 4.8 | 0.00 | 0.00 | 0.00 | 86 | 1030.1 |
| 20260508125854 | 12 | 263 | 0.0 | 3.2 | 0.00 | 0.00 | 0.00 | 85 | 1030.1 |
| 20260508125357 | 12 | 263 | 0.0 | 1.6 | 0.00 | 0.00 | 0.00 | 85 | 1030.1 |
| 20260508124224 | 12 | 263 | 0.0 | 4.8 | 0.00 | 0.00 | 0.00 | 85 | 1030.1 |
| 20260508123725 | 12 | 263 | 1.6 | 4.8 | 0.00 | 0.00 | 0.00 | 85 | 1030.1 |
| 20260508123228 | 13 | 263 | 1.6 | 4.8 | 0.00 | 0.00 | 0.00 | 85 | 1030.1 |
| 20260508122728 | 13 | 263 | 0.0 | 4.8 | 0.00 | 0.00 | 0.00 | 85 | 1030.1 |
| 20260508122214 | 13 | 263 | 0.0 | 3.2 | 0.00 | 0.00 | 0.00 | 84 | 1030.1 |
| 20260508121716 | 13 | 263 | 1.6 | 3.2 | 0.00 | 0.00 | 0.00 | 84 | 1030.1 |
| 20260508121216 | 13 | 263 | 1.6 | 3.2 | 0.00 | 0.00 | 0.00 | 84 | 1030.1 |
| 20260508120712 | 13 | 263 | 0.0 | 3.2 | 0.00 | 0.00 | 0.00 | 83 | 1030.1 |
| 20260508114934 | 13 | 263 | 0.0 | 1.6 | 0.00 | 0.00 | 0.00 | 83 | 1030.1 |
| 20260508114440 | 13 | 263 | 0.0 | 0.0 | 0.00 | 0.00 | 0.00 | 83 | 1030.1 |
| 20260508113926 | 13 | 263 | 0.0 | 3.2 | 0.00 | 0.00 | 0.00 | 82 | 1030.1 |
| 20260508112807 | 13 | 263 | 0.0 | 3.2 | 0.00 | 0.00 | 0.00 | 81 | 1030.1 |
| 20260508112253 | 13 | 263 | 0.0 | 6.4 | 0.00 | 0.00 | 0.00 | 81 | 1030.1 |
| 20260508111736 | 13 | 263 | 0.0 | 6.4 | 0.00 | 0.00 | 0.00 | 81 | 1030.1 |
| 20260508110604 | 14 | 263 | 3.2 | 8.0 | 0.00 | 0.00 | 0.00 | 81 | 1030.1 |
| 20260508110112 | 14 | 263 | 3.2 | 8.0 | 0.00 | 0.00 | 0.00 | 81 | 1030.1 |
| 20260508105608 | 14 | 263 | 3.2 | 8.0 | 0.00 | 0.00 | 0.00 | 80 | 1030.1 |
| 20260508105049 | 14 | 263 | 3.2 | 6.4 | 0.00 | 0.00 | 0.00 | 80 | 1030.1 |
| 20260508104531 | 14 | 263 | 3.2 | 6.4 | 0.00 | 0.00 | 0.00 | 80 | 1030.1 |
| 20260508104011 | 14 | 263 | 1.6 | 8.0 | 0.00 | 0.00 | 0.00 | 79 | 1030.1 |
| 20260508103501 | 14 | 263 | 3.2 | 8.0 | 0.00 | 0.00 | 0.00 | 79 | 1030.1 |
| 20260508102949 | 15 | 263 | 4.8 | 8.0 | 0.00 | 0.00 | 0.00 | 79 | 1030.1 |
| 20260508102457 | 15 | 263 | 4.8 | 8.0 | 0.00 | 0.00 | 0.00 | 79 | 1030.1 |
| 20260508101951 | 15 | 263 | 3.2 | 12.9 | 0.00 | 0.00 | 0.00 | 78 | 1030.1 |
| 20260508101438 | 15 | 263 | 3.2 | 12.9 | 0.00 | 0.00 | 0.00 | 78 | 1030.1 |
| 20260508100934 | 15 | 263 | 3.2 | 12.9 | 0.00 | 0.00 | 0.00 | 78 | 1030.0 |
| 20260508095823 | 15 | 263 | 3.2 | 9.7 | 0.00 | 0.00 | 0.00 | 78 | 1030.0 |
| 20260508095325 | 15 | 263 | 3.2 | 8.0 | 0.00 | 0.00 | 0.00 | 78 | 1030.0 |
| 20260508094833 | 15 | 263 | 1.6 | 8.0 | 0.00 | 0.00 | 0.00 | 77 | 1030.0 |
| 20260508094332 | 15 | 263 | 1.6 | 6.4 | 0.00 | 0.00 | 0.00 | 77 | 1029.9 |
| 20260508093817 | 15 | 263 | 0.0 | 6.4 | 0.00 | 0.00 | 0.00 | 77 | 1029.9 |
| 20260508093301 | 15 | 263 | 0.0 | 6.4 | 0.00 | 0.00 | 0.00 | 77 | 1029.9 |
| 20260508092752 | 15 | 263 | 0.0 | 3.2 | 0.00 | 0.00 | 0.00 | 77 | 1029.6 |
| 20260508091610 | 15 | 263 | 0.0 | 4.8 | 0.00 | 0.00 | 0.00 | 77 | 1029.6 |
| 20260508091059 | 15 | 263 | 0.0 | 4.8 | 0.00 | 0.00 | 0.00 | 78 | 1029.6 |
| 20260508090601 | 15 | 263 | 1.6 | 9.7 | 0.00 | 0.00 | 0.00 | 78 | 1029.6 |
| 20260508090059 | 15 | 263 | 1.6 | 9.7 | 0.00 | 0.00 | 0.00 | 78 | 1029.6 |
| 20260508084949 | 15 | 263 | 1.6 | 6.4 | 0.00 | 0.00 | 0.00 | 78 | 1029.6 |
| 20260508084437 | 15 | 263 | 1.6 | 6.4 | 0.00 | 0.00 | 0.00 | 78 | 1029.6 |
| 20260508083319 | 15 | 263 | 1.6 | 8.0 | 0.00 | 0.00 | 0.00 | 79 | 1029.5 |
| 20260508082811 | 15 | 263 | 1.6 | 8.0 | 0.00 | 0.00 | 0.00 | 79 | 1029.5 |
| 20260508082257 | 15 | 263 | 1.6 | 12.9 | 0.00 | 0.00 | 0.00 | 79 | 1029.5 |
| 20260508081738 | 15 | 263 | 3.2 | 12.9 | 0.00 | 0.00 | 0.00 | 79 | 1029.5 |
| 20260508081223 | 15 | 263 | 3.2 | 12.9 | 0.00 | 0.00 | 0.00 | 79 | 1029.2 |
| 20260508075426 | 16 | 263 | 4.8 | 14.5 | 0.00 | 0.00 | 0.00 | 78 | 1029.1 |
| 20260508074919 | 16 | 263 | 4.8 | 17.7 | 0.00 | 0.00 | 0.00 | 77 | 1029.1 |
| 20260508074426 | 16 | 263 | 6.4 | 17.7 | 0.00 | 0.00 | 0.00 | 77 | 1029.1 |
| 20260508073908 | 16 | 263 | 6.4 | 17.7 | 0.00 | 0.00 | 0.00 | 76 | 1029.0 |
| 20260508072737 | 16 | 263 | 4.8 | 16.1 | 0.00 | 0.00 | 0.00 | 77 | 1029.0 |
| 20260508072237 | 16 | 263 | 6.4 | 20.9 | 0.00 | 0.00 | 0.00 | 77 | 1029.0 |
| 20260508071728 | 16 | 263 | 8.0 | 20.9 | 0.00 | 0.00 | 0.00 | 77 | 1029.0 |
| 20260508071215 | 16 | 263 | 8.0 | 20.9 | 0.00 | 0.00 | 0.00 | 76 | 1029.0 |
| 20260508070056 | 16 | 263 | 6.4 | 16.1 | 0.00 | 0.00 | 0.00 | 78 | 1029.0 |
| 20260508065545 | 16 | 263 | 8.0 | 17.7 | 0.00 | 0.00 | 0.00 | 78 | 1029.1 |
| 20260508064408 | 16 | 263 | 6.4 | 17.7 | 0.00 | 0.00 | 0.00 | 76 | 1029.1 |
| 20260508063902 | 16 | 263 | 6.4 | 16.1 | 0.00 | 0.00 | 0.00 | 74 | 1029.0 |
| 20260508063355 | 17 | 263 | 4.8 | 16.1 | 0.00 | 0.00 | 0.00 | 74 | 1029.0 |
| 20260508062842 | 17 | 263 | 4.8 | 14.5 | 0.00 | 0.00 | 0.00 | 74 | 1029.0 |
| 20260508062324 | 17 | 263 | 6.4 | 22.5 | 0.00 | 0.00 | 0.00 | 76 | 1029.0 |
| 20260508061819 | 17 | 263 | 6.4 | 22.5 | 0.00 | 0.00 | 0.00 | 76 | 1029.0 |
| 20260508061310 | 17 | 263 | 8.0 | 22.5 | 0.00 | 0.00 | 0.00 | 76 | 1029.0 |
| 20260508060157 | 17 | 263 | 11.3 | 22.5 | 0.00 | 0.00 | 0.00 | 76 | 1029.0 |
| 20260508055042 | 17 | 263 | 12.9 | 22.5 | 0.00 | 0.00 | 0.00 | 77 | 1029.0 |
| 20260508053900 | 16 | 263 | 9.7 | 20.9 | 0.00 | 0.00 | 0.00 | 76 | 1029.0 |
| 20260508053345 | 16 | 263 | 9.7 | 20.9 | 0.00 | 0.00 | 0.00 | 75 | 1029.0 |
| 20260508052840 | 16 | 263 | 9.7 | 20.9 | 0.00 | 0.00 | 0.00 | 76 | 1029.0 |
| 20260508051716 | 17 | 263 | 6.4 | 19.3 | 0.00 | 0.00 | 0.00 | 76 | 1029.0 |
| 20260508051201 | 17 | 263 | 8.0 | 22.5 | 0.00 | 0.00 | 0.00 | 76 | 1029.0 |
| 20260508050655 | 17 | 263 | 8.0 | 22.5 | 0.00 | 0.00 | 0.00 | 75 | 1029.0 |
| 20260508050157 | 17 | 263 | 9.7 | 22.5 | 0.00 | 0.00 | 0.00 | 75 | 1029.0 |
| 20260508045021 | 17 | 263 | 9.7 | 20.9 | 0.00 | 0.00 | 0.00 | 73 | 1029.0 |
| 20260508043227 | 17 | 263 | 6.4 | 19.3 | 0.00 | 0.00 | 0.00 | 71 | 1029.0 |
| 20260508041447 | 17 | 263 | 6.4 | 19.3 | 0.00 | 0.00 | 0.00 | 71 | 1029.2 |
| 20260508040928 | 17 | 263 | 9.7 | 19.3 | 0.00 | 0.00 | 0.00 | 72 | 1029.3 |
| 20260508040415 | 17 | 263 | 8.0 | 19.3 | 0.00 | 0.00 | 0.00 | 74 | 1029.3 |
| 20260508035858 | 17 | 263 | 6.4 | 22.5 | 0.00 | 0.00 | 0.00 | 75 | 1029.5 |
| 20260508034723 | 16 | 263 | 8.0 | 22.5 | 0.00 | 0.00 | 0.00 | 78 | 1029.5 |
| 20260508034229 | 16 | 263 | 6.4 | 22.5 | 0.00 | 0.00 | 0.00 | 78 | 1029.6 |
| 20260508033734 | 16 | 263 | 6.4 | 17.7 | 0.00 | 0.00 | 0.00 | 80 | 1029.6 |
| 20260508033238 | 16 | 263 | 8.0 | 17.7 | 0.00 | 0.00 | 0.00 | 81 | 1029.6 |
| 20260508032732 | 16 | 263 | 8.0 | 17.7 | 0.00 | 0.00 | 0.00 | 83 | 1029.9 |
| 20260508032242 | 16 | 263 | 8.0 | 17.7 | 0.00 | 0.00 | 0.00 | 84 | 1029.9 |
| 20260508031731 | 16 | 263 | 8.0 | 16.1 | 0.00 | 0.00 | 0.00 | 86 | 1029.9 |
| 20260508030548 | 15 | 263 | 6.4 | 16.1 | 0.00 | 0.00 | 0.00 | 86 | 1030.1 |
| 20260508030041 | 15 | 263 | 8.0 | 22.5 | 0.00 | 0.00 | 0.00 | 85 | 1030.1 |
| 20260508025532 | 16 | 263 | 9.7 | 22.5 | 0.00 | 0.00 | 0.00 | 86 | 1030.1 |
| 20260508025026 | 16 | 263 | 9.7 | 22.5 | 0.00 | 0.00 | 0.00 | 85 | 1030.1 |
| 20260508024519 | 16 | 263 | 6.4 | 22.5 | 0.00 | 0.00 | 0.00 | 85 | 1030.1 |
| 20260508023959 | 16 | 263 | 4.8 | 20.9 | 0.00 | 0.00 | 0.00 | 86 | 1030.2 |
| 20260508023456 | 16 | 263 | 4.8 | 20.9 | 0.00 | 0.00 | 0.00 | 86 | 1030.2 |
| 20260508022337 | 15 | 263 | 6.4 | 17.7 | 0.00 | 0.00 | 0.00 | 87 | 1030.6 |
| 20260508021829 | 15 | 263 | 4.8 | 14.5 | 0.00 | 0.00 | 0.00 | 88 | 1030.6 |
| 20260508021318 | 15 | 263 | 6.4 | 19.3 | 0.00 | 0.00 | 0.00 | 87 | 1030.6 |
| 20260508020802 | 15 | 263 | 6.4 | 20.9 | 0.00 | 0.00 | 0.00 | 87 | 1030.6 |
| 20260508015655 | 15 | 263 | 9.7 | 20.9 | 0.00 | 0.00 | 0.00 | 86 | 1030.7 |
| 20260508015202 | 15 | 263 | 8.0 | 20.9 | 0.00 | 0.00 | 0.00 | 86 | 1030.7 |
| 20260508014655 | 15 | 263 | 4.8 | 19.3 | 0.00 | 0.00 | 0.00 | 87 | 1030.7 |
| 20260508014155 | 15 | 263 | 6.4 | 19.3 | 0.00 | 0.00 | 0.00 | 87 | 1031.1 |
| 20260508013046 | 15 | 263 | 6.4 | 17.7 | 0.00 | 0.00 | 0.00 | 86 | 1031.1 |
| 20260508012535 | 15 | 263 | 6.4 | 19.3 | 0.00 | 0.00 | 0.00 | 87 | 1031.1 |
| 20260508012030 | 15 | 263 | 8.0 | 19.3 | 0.00 | 0.00 | 0.00 | 86 | 1031.1 |
| 20260508011528 | 15 | 263 | 8.0 | 19.3 | 0.00 | 0.00 | 0.00 | 86 | 1031.1 |
| 20260508011018 | 15 | 263 | 6.4 | 19.3 | 0.00 | 0.00 | 0.00 | 85 | 1031.1 |
| 20260508010506 | 15 | 263 | 6.4 | 12.9 | 0.00 | 0.00 | 0.00 | 86 | 1031.1 |
| 20260508005346 | 15 | 263 | 4.8 | 16.1 | 0.00 | 0.00 | 0.00 | 86 | 1031.1 |
| 20260508004837 | 15 | 263 | 4.8 | 16.1 | 0.00 | 0.00 | 0.00 | 86 | 1031.1 |
| 20260508004317 | 15 | 263 | 4.8 | 16.1 | 0.00 | 0.00 | 0.00 | 85 | 1031.1 |
| 20260508003804 | 15 | 263 | 4.8 | 14.5 | 0.00 | 0.00 | 0.00 | 85 | 1031.1 |
| 20260508003300 | 15 | 263 | 4.8 | 14.5 | 0.00 | 0.00 | 0.00 | 84 | 1031.1 |
| 20260508002800 | 15 | 263 | 3.2 | 9.7 | 0.00 | 0.00 | 0.00 | 84 | 1031.0 |
| 20260508002252 | 15 | 263 | 3.2 | 9.7 | 0.00 | 0.00 | 0.00 | 84 | 1031.0 |
| 20260508001757 | 15 | 263 | 3.2 | 9.7 | 0.00 | 0.00 | 0.00 | 84 | 1031.0 |
| 20260508001242 | 15 | 263 | 3.2 | 9.7 | 0.00 | 0.00 | 0.00 | 84 | 1031.1 |
| 20260508000726 | 15 | 263 | 3.2 | 9.7 | 0.00 | 0.00 | 0.00 | 84 | 1031.1 |
| 20260508000212 | 14 | 263 | 3.2 | 9.7 | 0.00 | 0.00 | 0.00 | 83 | 1031.1 |
| 20260507235656 | 14 | 263 | 3.2 | 9.7 | 0.00 | 0.00 | 0.00 | 82 | 1031.0 |
| 20260507235158 | 14 | 263 | 3.2 | 14.5 | 0.00 | 0.00 | 0.00 | 82 | 1031.0 |
| 20260507234036 | 14 | 263 | 4.8 | 14.5 | 0.00 | 0.00 | 0.00 | 81 | 1030.9 |
| 20260507233537 | 14 | 263 | 4.8 | 14.5 | 0.00 | 0.00 | 0.00 | 81 | 1030.9 |
| 20260507233032 | 14 | 263 | 3.2 | 12.9 | 0.00 | 0.00 | 0.00 | 81 | 1030.9 |
| 20260507232515 | 14 | 263 | 3.2 | 12.9 | 0.00 | 0.00 | 0.00 | 81 | 1030.7 |
| 20260507232011 | 14 | 263 | 6.4 | 12.9 | 0.00 | 0.00 | 0.00 | 80 | 1030.7 |
| 20260507231511 | 14 | 263 | 6.4 | 17.7 | 0.00 | 0.00 | 0.00 | 80 | 1030.7 |
| 20260507231018 | 15 | 263 | 6.4 | 17.7 | 0.00 | 0.00 | 0.00 | 79 | 1030.7 |
| 20260507230523 | 15 | 263 | 6.4 | 17.7 | 0.00 | 0.00 | 0.00 | 79 | 1030.7 |
| 20260507224907 | 15 | 263 | 3.2 | 8.0 | 0.00 | 0.00 | 0.00 | 77 | 1030.6 |
| 20260507224350 | 15 | 263 | 1.6 | 8.0 | 0.00 | 0.00 | 0.00 | 77 | 1030.4 |
| 20260507223838 | 15 | 263 | 3.2 | 8.0 | 0.00 | 0.00 | 0.00 | 77 | 1030.4 |
| 20260507223321 | 15 | 263 | 3.2 | 12.9 | 0.00 | 0.00 | 0.00 | 77 | 1030.4 |
| 20260507222822 | 15 | 263 | 3.2 | 12.9 | 0.00 | 0.00 | 0.00 | 77 | 1030.2 |
| 20260507222321 | 15 | 263 | 4.8 | 12.9 | 0.00 | 0.00 | 0.00 | 77 | 1030.2 |
| 20260507221819 | 15 | 263 | 3.2 | 11.3 | 0.00 | 0.00 | 0.00 | 77 | 1030.2 |
| 20260507221324 | 15 | 263 | 3.2 | 20.9 | 0.00 | 0.00 | 0.00 | 77 | 1030.1 |
| 20260507220814 | 15 | 263 | 3.2 | 20.9 | 0.00 | 0.00 | 0.00 | 77 | 1030.1 |
| 20260507220316 | 15 | 263 | 4.8 | 20.9 | 0.00 | 0.00 | 0.00 | 76 | 1030.1 |
| 20260507215759 | 15 | 263 | 3.2 | 20.9 | 0.00 | 0.00 | 0.00 | 76 | 1029.7 |
| 20260507215307 | 14 | 263 | 1.6 | 11.3 | 0.00 | 0.00 | 0.00 | 76 | 1029.7 |
| 20260507214806 | 14 | 263 | 3.2 | 11.3 | 0.00 | 0.00 | 0.00 | 76 | 1029.7 |
| 20260507214307 | 14 | 263 | 3.2 | 11.3 | 0.00 | 0.00 | 0.00 | 76 | 1029.6 |
| 20260507213753 | 14 | 263 | 3.2 | 11.3 | 0.00 | 0.00 | 0.00 | 76 | 1029.6 |
| 20260507213240 | 14 | 263 | 3.2 | 9.7 | 0.00 | 0.00 | 0.00 | 77 | 1029.6 |
| 20260507212721 | 14 | 263 | 1.6 | 6.4 | 0.00 | 0.00 | 0.00 | 77 | 1029.6 |
| 20260507212220 | 14 | 263 | 1.6 | 6.4 | 0.00 | 0.00 | 0.00 | 77 | 1029.6 |
| 20260507211715 | 14 | 263 | 1.6 | 6.4 | 0.00 | 0.00 | 0.00 | 77 | 1029.6 |
| 20260507211220 | 14 | 263 | 1.6 | 6.4 | 0.00 | 0.00 | 0.00 | 77 | 1029.5 |
| 20260507210711 | 14 | 263 | 1.6 | 6.4 | 0.00 | 0.00 | 0.00 | 78 | 1029.5 |
| 20260507210218 | 14 | 263 | 1.6 | 8.0 | 0.00 | 0.00 | 0.00 | 78 | 1029.5 |
| 20260507205718 | 14 | 263 | 1.6 | 8.0 | 0.00 | 0.00 | 0.00 | 78 | 1029.5 |
| 20260507205158 | 13 | 263 | 1.6 | 8.0 | 0.00 | 0.00 | 0.00 | 78 | 1029.5 |
| 20260507204707 | 13 | 263 | 1.6 | 8.0 | 0.00 | 0.00 | 0.00 | 78 | 1029.5 |
| 20260507204210 | 13 | 263 | 1.6 | 6.4 | 0.00 | 0.00 | 0.00 | 78 | 1029.5 |
| 20260507203715 | 13 | 263 | 1.6 | 6.4 | 0.00 | 0.00 | 0.00 | 78 | 1029.5 |
| 20260507203207 | 13 | 263 | 0.0 | 6.4 | 0.00 | 0.00 | 0.00 | 78 | 1029.5 |
| 20260507202705 | 13 | 263 | 0.0 | 6.4 | 0.00 | 0.00 | 0.00 | 78 | 1029.5 |
| 20260507202148 | 13 | 263 | 0.0 | 6.4 | 0.00 | 0.00 | 0.00 | 78 | 1029.5 |
| 20260507201629 | 13 | 263 | 0.0 | 1.6 | 0.00 | 0.00 | 0.00 | 78 | 1029.5 |
| 20260507201120 | 13 | 263 | 0.0 | 1.6 | 0.00 | 0.00 | 0.00 | 78 | 1029.5 |
| 20260507195948 | 13 | 263 | 0.0 | 0.0 | 0.00 | 0.00 | 0.00 | 78 | 1029.5 |
| 20260507195451 | 13 | 263 | 0.0 | 0.0 | 0.00 | 0.00 | 0.00 | 78 | 1029.6 |
| 20260507194958 | 13 | 263 | 0.0 | 4.8 | 0.00 | 0.00 | 0.00 | 78 | 1029.6 |
| 20260507193829 | 13 | 263 | 0.0 | 3.2 | 0.00 | 0.00 | 0.00 | 77 | 1029.6 |
| 20260507193339 | 13 | 263 | 0.0 | 1.6 | 0.00 | 0.00 | 0.00 | 77 | 1029.6 |
| 20260507192840 | 13 | 263 | 0.0 | 0.0 | 0.00 | 0.00 | 0.00 | 77 | 1029.5 |
| 20260507192346 | 13 | 263 | 0.0 | 0.0 | 0.00 | 0.00 | 0.00 | 77 | 1029.5 |
| 20260507191854 | 13 | 263 | 0.0 | 0.0 | 0.00 | 0.00 | 0.00 | 77 | 1029.5 |
| 20260507191355 | 13 | 263 | 1.6 | 6.4 | 0.00 | 0.00 | 0.00 | 77 | 1029.5 |
| 20260507190855 | 13 | 263 | 1.6 | 14.5 | 0.00 | 0.00 | 0.00 | 77 | 1029.5 |
| 20260507185730 | 13 | 263 | 3.2 | 14.5 | 0.00 | 0.00 | 0.00 | 76 | 1029.3 |
| 20260507185221 | 13 | 263 | 1.6 | 8.0 | 0.00 | 0.00 | 0.00 | 77 | 1029.3 |
| 20260507184711 | 13 | 263 | 3.2 | 8.0 | 0.00 | 0.00 | 0.00 | 77 | 1029.3 |
| 20260507184219 | 13 | 263 | 1.6 | 8.0 | 0.00 | 0.00 | 0.00 | 77 | 1029.3 |
| 20260507183055 | 13 | 263 | 0.0 | 0.0 | 0.00 | 0.00 | 0.00 | 78 | 1029.3 |
| 20260507182537 | 13 | 263 | 0.0 | 0.0 | 0.00 | 0.00 | 0.00 | 78 | 1029.5 |
| 20260507182020 | 13 | 263 | 0.0 | 0.0 | 0.00 | 0.00 | 0.00 | 78 | 1029.5 |
| 20260507181504 | 13 | 263 | 0.0 | 4.8 | 0.00 | 0.00 | 0.00 | 79 | 1029.5 |
| 20260507181007 | 13 | 263 | 1.6 | 8.0 | 0.00 | 0.00 | 0.00 | 79 | 1029.4 |
| 20260507175343 | 13 | 263 | 3.2 | 9.7 | 0.00 | 0.00 | 0.00 | 80 | 1029.5 |
| 20260507174221 | 13 | 263 | 3.2 | 8.0 | 0.00 | 0.00 | 0.00 | 81 | 1029.6 |
| 20260507173706 | 13 | 263 | 3.2 | 8.0 | 0.00 | 0.00 | 0.00 | 81 | 1029.6 |
| 20260507173155 | 13 | 263 | 1.6 | 8.0 | 0.00 | 0.00 | 0.00 | 81 | 1029.6 |
| 20260507172648 | 13 | 263 | 1.6 | 8.0 | 0.00 | 0.00 | 0.00 | 81 | 1029.5 |
| 20260507172143 | 13 | 263 | 3.2 | 8.0 | 0.00 | 0.00 | 0.00 | 81 | 1029.5 |
| 20260507171650 | 13 | 263 | 3.2 | 14.5 | 0.00 | 0.00 | 0.00 | 81 | 1029.5 |
| 20260507171136 | 13 | 263 | 3.2 | 14.5 | 0.00 | 0.00 | 0.00 | 81 | 1029.5 |
| 20260507170004 | 13 | 263 | 1.6 | 9.7 | 0.00 | 0.00 | 0.00 | 81 | 1029.5 |
| 20260507165502 | 13 | 263 | 3.2 | 9.7 | 0.00 | 0.00 | 0.00 | 81 | 1029.7 |
| 20260507164951 | 13 | 263 | 3.2 | 9.7 | 0.00 | 0.00 | 0.00 | 80 | 1029.7 |
| 20260507164433 | 13 | 263 | 1.6 | 9.7 | 0.00 | 0.00 | 0.00 | 80 | 1029.7 |
| 20260507163245 | 13 | 263 | 0.0 | 0.0 | 0.00 | 0.00 | 0.00 | 79 | 1029.8 |
| 20260507162736 | 13 | 263 | 0.0 | 3.2 | 0.00 | 0.00 | 0.00 | 79 | 1029.8 |
| 20260507162222 | 13 | 263 | 1.6 | 14.5 | 0.00 | 0.00 | 0.00 | 79 | 1029.8 |
| 20260507161721 | 13 | 263 | 3.2 | 14.5 | 0.00 | 0.00 | 0.00 | 79 | 1029.8 |
| 20260507160544 | 13 | 263 | 4.8 | 9.7 | 0.00 | 0.00 | 0.00 | 77 | 1030.0 |
| 20260507160051 | 13 | 263 | 4.8 | 9.7 | 0.00 | 0.00 | 0.00 | 76 | 1030.0 |
| 20260507155540 | 14 | 263 | 3.2 | 16.1 | 0.00 | 0.00 | 0.00 | 75 | 1030.0 |
| 20260507154407 | 14 | 263 | 6.4 | 19.3 | 0.00 | 0.00 | 0.00 | 74 | 1030.1 |
| 20260507153847 | 14 | 263 | 8.0 | 19.3 | 0.00 | 0.00 | 0.00 | 74 | 1030.1 |
| 20260507153350 | 14 | 263 | 6.4 | 19.3 | 0.00 | 0.00 | 0.00 | 73 | 1030.1 |
| 20260507152834 | 14 | 263 | 4.8 | 16.1 | 0.00 | 0.00 | 0.00 | 72 | 1029.9 |
| 20260507152327 | 14 | 263 | 4.8 | 14.5 | 0.00 | 0.00 | 0.00 | 72 | 1029.9 |
| 20260507151822 | 14 | 263 | 4.8 | 14.5 | 0.00 | 0.00 | 0.00 | 71 | 1029.9 |
| 20260507151308 | 14 | 263 | 4.8 | 14.5 | 0.00 | 0.00 | 0.00 | 71 | 1030.1 |
| 20260507150757 | 14 | 263 | 6.4 | 20.9 | 0.00 | 0.00 | 0.00 | 71 | 1030.1 |
| 20260507150242 | 14 | 263 | 6.4 | 20.9 | 0.00 | 0.00 | 0.00 | 71 | 1030.1 |
| 20260507145747 | 14 | 263 | 8.0 | 20.9 | 0.00 | 0.00 | 0.00 | 71 | 1030.1 |
| 20260507145240 | 14 | 263 | 8.0 | 20.9 | 0.00 | 0.00 | 0.00 | 71 | 1030.1 |
| 20260507144723 | 14 | 263 | 6.4 | 19.3 | 0.00 | 0.00 | 0.00 | 70 | 1030.1 |
| 20260507144217 | 14 | 263 | 4.8 | 12.9 | 0.00 | 0.00 | 0.00 | 70 | 1030.1 |
| 20260507143710 | 14 | 263 | 4.8 | 12.9 | 0.00 | 0.00 | 0.00 | 70 | 1030.1 |
| 20260507143207 | 14 | 263 | 4.8 | 12.9 | 0.00 | 0.00 | 0.00 | 70 | 1030.1 |
| 20260507142713 | 14 | 263 | 3.2 | 12.9 | 0.00 | 0.00 | 0.00 | 70 | 1030.1 |
| 20260507142216 | 13 | 263 | 1.6 | 6.4 | 0.00 | 0.00 | 0.00 | 70 | 1030.1 |
| 20260507141702 | 13 | 263 | 0.0 | 6.4 | 0.00 | 0.00 | 0.00 | 70 | 1030.1 |